THORAD AGENA D DEB, 4644

Orbit data source: Space-Track

THORAD AGENA D DEB, 4644 is space debris in SSO originally from a launch on Wed, 08 Apr 1970 UTC launched from the Air Force Western Test Range (AFWTR). Debris objects in space refer to the collection of defunct objects orbiting the Earth. Examples of debris include non-operational satellites, rocket bodies, and fragments generated from explosions, collisions, or faulty payload assembly.

Loading next visibility...
Identifier
4644, 1970-025AC
Orbit
SSO
Country
Flag of USUS
Related business
Manufacturer
Unknown
Mission
Spacecraft
Bus & Motor
Unknown
Mass
Unknown
Launch date (UTC)
1970-04-08 (56 years ago)
Launch vehicle
Unknown
Launch site
Air Force Western Test Range (AFWTR)
Object type
Payload
Rocket body
Debris
Shape & HBR
Unknown shape, 0.1 m
Radar Cross Section
Medium (>0.1 m² and <1 m²)

Expand to show TLE details & history
Last TLE update: 9 hours ago

TLE from 9 hours ago
0 THORAD AGENA D DEB
1 04644U 70025AC  25305.65156716  .00000290  00000-0  44415-3 0  9996
2 04644  99.5707 199.5234 0010462 142.4331 235.2151 13.60338549746245
Epoch: 2025-11-01T15:38Z
TLE epoch observation values (Epoch: 2025-11-01T15:38:15.402Z)
Latitude
17.28713°
Longitude
-79.21181°
Altitude
1,041.102 km
Speed
7.33 km/s
True Right ascension
13h 06m 07s
True Declination
17° 11' 37"
Sunlit
Object was in daylight at epoch
Visualization orbit readout
Latitude
Unknown
Longitude
Unknown
Altitude
Unknown
Speed
Unknown
Apparent Right ascension
Unknown
Apparent Declination
Unknown
Sunlit
N/A
Visualization observer readout
Local Sidereal Time
20:00:59
Azimuth
Unknown
Elevation
Unknown
Doppler factor
Unknown
Orbital elements
Apogee altitude
1,039.495 km
Perigee altitude
1,023.991 km
Semi-major axis
7,409.88 km
Eccentricity
0.00105
Inclination
99.5707°
RAAN
199.5234°
Arg. of periapsis
142.4331°
True anomaly
235.11671°
Mean anomaly
235.2151°
Eccentric anomaly
235.1659°
Mean motion
3.40272 °/min
Orbital period
105.8 mins
BSTAR
0.00044415

Documentation

Showing up to 5 results
|